Ardmore Downtown, OK

7:07 PM CDT on July 27, 2017 (GMT -0500)
Ardmore Downtown

Weather History for K1F0 - November, 2013

Change the Weather History Date:

Monday, November 4, 2013

  Actual Average (KADM) Record (KADM)
Temperature  
Mean Temperature 56 °F -  
Max Temperature 60 °F 64 °F 84 °F (2005)
Min Temperature 53 °F 46 °F 28 °F (2011)
Degree Days  
Heating Degree Days 8    
Growing Degree Days 6 (Base 50)    
Moisture  
Dew Point 50 °F    
Average Humidity 78    
Maximum Humidity 94    
Minimum Humidity 63    
Precipitation  
Precipitation 0.27 in - - ()
Sea Level Pressure  
Sea Level Pressure 30.03 in    
Wind  
Wind Speed 10 mph (SSE)    
Max Wind Speed 16 mph    
Max Gust Speed 23 mph    
Visibility 10 miles    
Events Rain    
Averages and records for this station are not official NWS values.
T = Trace of Precipitation, MM = Missing Value Source: NWS Daily Summary

Daily Weather History Graph

Daily Weather History Graph

Search for Another Location

Airport or City:

Trip Planner

Search our weather history database for the weather conditions in past years. The results will help you decide how hot, cold, wet, or windy it might be!

Date:

Astronomy

Nov. 04, 2013 Rise Set
Actual Time 6:51 AM CST 5:32 PM CST
Civil Twilight 6:25 AM CST 5:58 PM CST
Nautical Twilight 5:55 AM CST 6:28 PM CST
Astronomical Twilight 5:26 AM CST 6:57 PM CST
Moon 8:00 AM CST (11/4) 6:41 PM CST (11/4)
Length of Visible Light 11h 33m
Length of Day
10h 41m
New Moon, 2% of the Moon is Illuminated
Nov 4
New Moon
Nov 9
First Quarter
Nov 17
Full
Nov 25
Last Quarter
Dec 2
New

Hourly Weather History & Observations

Time (CST) Temp. Dew Point Humidity Pressure Visibility Wind Dir Wind Speed Gust Speed Precip Events Conditions
12:15 AM 55.4 °F 42.8 °F 63% 30.01 in 10.0 mi SSE 8.1 mph - N/A   Mostly Cloudy
12:35 AM 55.4 °F 42.8 °F 63% 30.00 in 10.0 mi SSE 11.5 mph - N/A   Overcast
12:55 AM 55.4 °F 42.8 °F 63% 30.01 in 10.0 mi SSE 10.4 mph 16.1 mph N/A   Overcast
1:15 AM 55.4 °F 42.8 °F 63% 30.02 in 10.0 mi South 9.2 mph - N/A   Overcast
1:35 AM 55.4 °F 44.6 °F 67% 30.02 in 10.0 mi SSE 8.1 mph - N/A   Overcast
1:55 AM 55.4 °F 44.6 °F 67% 30.02 in 10.0 mi South 8.1 mph - N/A Rain Light Rain
2:15 AM 53.6 °F 44.6 °F 72% 30.01 in 10.0 mi SSE 8.1 mph - N/A   Light Drizzle
2:35 AM 53.6 °F 44.6 °F 72% 30.00 in 10.0 mi SSE 8.1 mph - N/A   Overcast
2:55 AM 55.4 °F 44.6 °F 67% 29.99 in 10.0 mi SSE 8.1 mph - N/A   Overcast
3:15 AM 55.4 °F 44.6 °F 67% 29.99 in 10.0 mi SSE 10.4 mph - N/A Rain Light Rain
3:35 AM 55.4 °F 44.6 °F 67% 29.98 in 10.0 mi SSE 9.2 mph - N/A   Overcast
3:55 AM 53.6 °F 44.6 °F 72% 29.98 in 10.0 mi SSE 11.5 mph - N/A   Overcast
4:15 AM 53.6 °F 46.4 °F 77% 29.97 in 10.0 mi SSE 10.4 mph 17.3 mph N/A   Overcast
4:35 AM 55.4 °F 46.4 °F 72% 29.98 in 10.0 mi South 11.5 mph 17.3 mph N/A   Overcast
4:55 AM 53.6 °F 46.4 °F 77% 29.98 in 10.0 mi South 12.7 mph 17.3 mph N/A   Scattered Clouds
5:15 AM 53.6 °F 46.4 °F 77% 29.98 in 10.0 mi SSE 9.2 mph - N/A   Scattered Clouds
5:35 AM 53.6 °F 46.4 °F 77% 29.99 in 10.0 mi South 11.5 mph - N/A   Mostly Cloudy
5:55 AM 53.6 °F 46.4 °F 77% 29.99 in 10.0 mi South 10.4 mph 17.3 mph N/A   Overcast
6:15 AM 55.4 °F 46.4 °F 72% 29.99 in 10.0 mi South 11.5 mph 20.7 mph N/A   Overcast
6:35 AM 53.6 °F 46.4 °F 77% 29.99 in 10.0 mi South 12.7 mph 17.3 mph N/A   Mostly Cloudy
6:55 AM 53.6 °F 48.2 °F 82% 29.99 in 10.0 mi South 9.2 mph - N/A   Mostly Cloudy
7:15 AM 53.6 °F 48.2 °F 82% 30.01 in 10.0 mi South 10.4 mph - N/A   Mostly Cloudy
7:35 AM 53.6 °F 48.2 °F 82% 30.01 in 10.0 mi South 9.2 mph 16.1 mph N/A   Overcast
7:55 AM 53.6 °F 48.2 °F 82% 30.03 in 10.0 mi SSE 9.2 mph - N/A   Overcast
8:15 AM 53.6 °F 46.4 °F 77% 30.04 in 10.0 mi South 11.5 mph 16.1 mph N/A   Overcast
8:35 AM 53.6 °F 48.2 °F 82% 30.04 in 10.0 mi South 8.1 mph 18.4 mph N/A   Overcast
8:55 AM 53.6 °F 48.2 °F 82% 30.05 in 10.0 mi South 11.5 mph 16.1 mph N/A   Mostly Cloudy
9:15 AM 55.4 °F 48.2 °F 77% 30.04 in 10.0 mi South 12.7 mph 17.3 mph N/A   Scattered Clouds
9:35 AM 55.4 °F 48.2 °F 77% 30.05 in 10.0 mi South 10.4 mph 17.3 mph N/A   Clear
9:55 AM 57.2 °F 48.2 °F 72% 30.06 in 10.0 mi South 10.4 mph 17.3 mph N/A   Clear
10:15 AM 59.0 °F 48.2 °F 67% 30.06 in 10.0 mi South 12.7 mph 17.3 mph N/A   Scattered Clouds
10:35 AM 60.8 °F 50.0 °F 68% 30.07 in 10.0 mi SSW 13.8 mph 19.6 mph N/A   Mostly Cloudy
10:55 AM 59.0 °F 50.0 °F 72% 30.06 in 10.0 mi South 10.4 mph 18.4 mph N/A   Mostly Cloudy
11:15 AM 60.8 °F 50.0 °F 68% 30.05 in 10.0 mi South 16.1 mph 23.0 mph N/A   Mostly Cloudy
11:35 AM 60.8 °F 50.0 °F 68% 30.05 in 10.0 mi South 13.8 mph 20.7 mph N/A   Overcast
11:55 AM 60.8 °F 51.8 °F 72% 30.04 in 10.0 mi South 6.9 mph 10.4 mph N/A   Mostly Cloudy
12:15 PM 60.8 °F 51.8 °F 72% 30.03 in 10.0 mi South 12.7 mph 19.6 mph N/A   Mostly Cloudy
12:35 PM 60.8 °F 51.8 °F 72% 30.02 in 10.0 mi South 10.4 mph 20.7 mph N/A   Mostly Cloudy
12:55 PM 60.8 °F 51.8 °F 72% 30.03 in 10.0 mi South 12.7 mph - N/A   Mostly Cloudy
1:15 PM 60.8 °F 51.8 °F 72% 30.03 in 10.0 mi South 8.1 mph - N/A   Overcast
1:35 PM 60.8 °F 53.6 °F 77% 30.02 in 10.0 mi South 8.1 mph - N/A   Overcast
1:55 PM 60.8 °F 53.6 °F 77% 30.02 in 10.0 mi South 8.1 mph - N/A   Overcast
2:15 PM 60.8 °F 53.6 °F 77% 30.02 in 10.0 mi South 8.1 mph - N/A   Overcast
2:35 PM 60.8 °F 53.6 °F 77% 30.02 in 10.0 mi South 11.5 mph - N/A   Overcast
2:55 PM 60.8 °F 53.6 °F 77% 30.02 in 10.0 mi South 8.1 mph - N/A   Overcast
3:15 PM 59.0 °F 53.6 °F 82% 30.02 in 10.0 mi South 8.1 mph - N/A   Overcast
3:35 PM 60.8 °F 53.6 °F 77% 30.02 in 10.0 mi South 10.4 mph - N/A   Overcast
3:55 PM 60.8 °F 53.6 °F 77% 30.02 in 10.0 mi South 6.9 mph - N/A   Overcast
4:15 PM 60.8 °F 53.6 °F 77% 30.02 in 10.0 mi SSE 6.9 mph - N/A   Overcast
4:35 PM 60.8 °F 53.6 °F 77% 30.03 in 10.0 mi South 8.1 mph - N/A   Overcast
4:55 PM 60.8 °F 53.6 °F 77% 30.04 in 10.0 mi South 10.4 mph - N/A   Overcast
5:15 PM 60.8 °F 53.6 °F 77% 30.05 in 10.0 mi South 8.1 mph - N/A   Overcast
5:35 PM 59.0 °F 53.6 °F 82% 30.05 in 10.0 mi South 9.2 mph - N/A   Overcast
5:55 PM 59.0 °F 53.6 °F 82% 30.05 in 10.0 mi South 8.1 mph 16.1 mph N/A   Overcast
6:15 PM 59.0 °F 53.6 °F 82% 30.05 in 10.0 mi South 8.1 mph - N/A   Overcast
6:35 PM 59.0 °F 53.6 °F 82% 30.06 in 10.0 mi SSE 6.9 mph - N/A   Overcast
6:55 PM 59.0 °F 55.4 °F 88% 30.06 in 10.0 mi SSE 9.2 mph - N/A   Overcast
7:15 PM 59.0 °F 55.4 °F 88% 30.07 in 10.0 mi SSE 6.9 mph - N/A Rain Light Rain
7:35 PM 59.0 °F 55.4 °F 88% 30.07 in 10.0 mi SSE 8.1 mph - N/A   Overcast
7:55 PM 59.0 °F 55.4 °F 88% 30.07 in 10.0 mi SSE 6.9 mph - N/A   Overcast
8:15 PM 59.0 °F 55.4 °F 88% 30.08 in 10.0 mi SSE 10.4 mph - N/A Rain Light Rain
8:35 PM 59.0 °F 55.4 °F 88% 30.08 in 10.0 mi SSE 9.2 mph - N/A   Overcast
8:55 PM 59.0 °F 55.4 °F 88% 30.08 in 10.0 mi SSE 9.2 mph - N/A   Overcast
9:15 PM 59.0 °F 55.4 °F 88% 30.08 in 10.0 mi SSE 8.1 mph - N/A   Drizzle
9:35 PM 59.0 °F 55.4 °F 88% 30.08 in 7.0 mi SSE 6.9 mph - N/A   Drizzle
9:55 PM 57.2 °F 55.4 °F 94% 30.08 in 7.0 mi SSE 11.5 mph - N/A Rain Light Rain
10:15 PM 57.2 °F 55.4 °F 94% 30.08 in 7.0 mi SSE 9.2 mph - N/A Rain Rain
10:35 PM 57.2 °F 55.4 °F 94% 30.09 in 5.0 mi SSE 9.2 mph - 0.04 in Rain Rain
10:55 PM 57.2 °F 55.4 °F 94% 30.09 in 5.0 mi SSE 6.9 mph - 0.11 in Rain Rain
11:15 PM 57.2 °F 55.4 °F 94% 30.08 in 5.0 mi SSE 9.2 mph - 0.06 in Rain Rain
11:35 PM 59.0 °F 55.4 °F 88% 30.07 in 5.0 mi SSE 6.9 mph - 0.12 in Rain Rain
11:55 PM 59.0 °F 55.4 °F 88% 30.07 in 5.0 mi SSE 6.9 mph - 0.16 in Rain Light Rain